Regional Weather Roundup
Issued by NWS

Home | Current Version | Previous Version | Text Only | Print | Product List | Glossary On
Versions: 1 2 3 4 5 6 7 8 9 10 11 12 13 14 15 16 17 18 19 20 21 22 23 24 25 26 27 28 29 30 31 32 33 34 35 36 37 38 39 40 41 42 43 44 45 46 47 48 49 50
000
ASUS45 KTFX 022104
RWRMT
MONTANA HOURLY WEATHER ROUNDUP
NATIONAL WEATHER SERVICE GREAT FALLS MT
204 PM MST MON MAR 2 2015

NOTE: "FAIR" INDICATES FEW OR NO CLOUDS BELOW 12000 FEET WITH NO
SIGNIFICANT WEATHER AND/OR OBSTRUCTIONS TO VISIBILITY.

* THESE STATIONS ARE NOT UNDER NWS QUALITY CONTROL. THEY DO NOT
   REPORT WEATHER SUCH AS PRECIPITATION OR FOG.

MTZ001>007-043-022200-
WEST OF THE DIVIDE
CITY           SKY/WX    TMP DP  RH WIND       PRES   REMARKS
KALISPELL      CLOUDY    30  21  69 NE16      29.90F WCI  19
MISSOULA       CLOUDY    36  12  37 NW7       29.83F WCI  30
BUTTE          PTSUNNY   34  10  37 W10       29.71F WCI  26
MULLAN PASS    LGT SNOW  23  19  85 CALM      29.72F VSB 1
* ANACONDA     CLOUDY    28  12  51 N6         N/A   WCI  21
* ESSEX        N/A       27  11  51 NE9G16     N/A   WCI  18
* LINCOLN      N/A       29  19  66 NE10G15    N/A   WCI  20
* LOOKOUT PASS N/A       28  21  75 VRB3       N/A
* POLSON       N/A       29  21  72 N3         N/A
* RONAN APT    CLOUDY    30  21  69 N9         N/A   WCI  22
* SEELEY LAKE  N/A       34   9  35 NW3        N/A
* THOMP F APT  CLOUDY    37   9  31 S4G14      N/A
$$

MTZ008-052>055-022200-
SOUTHWEST MONTANA
CITY           SKY/WX    TMP DP  RH WIND       PRES   REMARKS
BOZEMAN        SUNNY     39   7  26 CALM      29.75F
DILLON         PTCLDY    41   3  20 CALM      29.69F
* W YELLOWSTON PTSUNNY   36   7  30 NW3        N/A
* THREE FORKS  PTCLDY    41   9  27 N/A        N/A
* BOULDER HILL N/A       26   7  44 N15G23     N/A   WCI  14
* MONIDA PASS  N/A       35   3  26 NE8        N/A   WCI  28
* RAYNOLDS PAS N/A       36  16  44 SE2        N/A
* WHITEHALL    N/A       43   6  21 SE5        N/A
* WISE RIVER   N/A       40   7  25 W5G10      N/A   WCI  36
$$

MTZ009>010-012-014-046-048-049-054-022200-
EAST SLOPES AND CENTRAL MONTANA
CITY           SKY/WX    TMP DP  RH WIND       PRES   REMARKS
CUT BANK       CLOUDY    21  12  68 N31G38    29.98R WCI   2
GREAT FALLS    LGT SNOW  27  23  85 N15       29.90S VSB 2    WCI  15
HELENA         CLOUDY    34  21  59 NW14      29.83F WCI  24
MALMSTROM AFB  LGT SNOW  28  25  89 N15G22    29.92R VSB 3    WCI  16
* DEARBORN     N/A       28  25  89 VRB10G15    N/A   WCI  19
* EAST GLACIER N/A       16  10  77 NE24G31    N/A   WCI  -2
* MONARCH      N/A       21  16  81 NW16       N/A   WCI   7
* PENDROY      N/A       21  19  92 N21G32     N/A   WCI   5
* ROGERS PASS  N/A       21  18  88 S4G14      N/A
* SWEET GRASS  N/A       18  16  92 N27G35     N/A   WCI  -1
$$

MTZ011-013-016-021-035-040-045-047-050-051-022200-
NORTH CENTRAL MONTANA
CITY           SKY/WX    TMP DP  RH WIND       PRES   REMARKS
HAVRE          CLOUDY    30  12  47 N22G29    29.93R WCI  17
LEWISTOWN      LGT SNOW  28  23  81 NW14G21   29.84R VSB 1 1/2 WCI  17
* N BAR RANCH  PTSUNNY   28  19  69 NW18G26   29.80R WCI  15
* CHESTER      N/A       25  15  66 N19G33     N/A   WCI  11
* DENTON       N/A       27  22  81 NW16G25    N/A   WCI  15
* GEYSER       N/A       28  22  78 W17        N/A   WCI  16
* JUDITH GAP   N/A       25  23  92 VRB24G30    N/A   WCI  10
* LOMA         N/A       32  18  56 N24G30     N/A   WCI  19
$$

MTZ017>020-022>027-061-062-022200-
NORTHEAST MONTANA
CITY           SKY/WX    TMP DP  RH WIND       PRES   REMARKS
GLASGOW        PTSUNNY   37  18  46 NW20G29   29.78R WCI  27
GLENDIVE       SUNNY     45  16  31 W20G25    29.74F
JORDAN         PTSUNNY   39  18  43 NW20      29.77F WCI  29
SIDNEY         PTCLDY    43  16  34 SW15G22   29.76F
WOLF POINT     PTSUNNY   43  18  37 W16       29.76S
* BEAVER HILL  N/A       40  13  33 W14G19     N/A   WCI  32
* CIRCLE       N/A       40  21  47 W10G18     N/A   WCI  34
* LINDSAY DVD  N/A       41  15  35 W15G24     N/A
* NAVAJO       N/A       32  17  54 NW24G29    N/A   WCI  19
* SACO         N/A       34  20  57 NW22G28    N/A   WCI  22
$$

MTZ028>042-056>058-022200-
SOUTHCENTRAL AND SOUTHEAST MONTANA
CITY           SKY/WX    TMP DP  RH WIND       PRES   REMARKS
BAKER          PTCLDY    43  16  34 W13       29.73F
BILLINGS       PTSUNNY   45   7  21 CALM      29.75S
LIVINGSTON     PTCLDY    43   7  22 N9        29.72F
MILES CITY     PTCLDY    45  14  28 NW17G24   29.74F
* LAUREL APT   PTCLDY    45   9  23 N/A        N/A
* ROUNDUP APT  PTCLDY    43  12  28 NW17G23    N/A
* ALZADA       N/A       44  16  32 W7         N/A
* HYSHAM       N/A       41   9  27 N8G14      N/A
* LAME DEER    N/A       36  13  39 N8G17      N/A   WCI  30
* REED POINT   N/A       47  13  25 E8         N/A
* ROSCOE HILL  N/A       35   3  26 SE3        N/A
$$

REGIONAL REPORTS...DAKOTAS
CITY           SKY/WX    TMP DP  RH WIND       PRES   REMARKS
WILLISTON      PTSUNNY   37  18  46 SW21      29.72F WCI  26
DICKINSON      PTCLDY    45  10  24 SW17      29.71F
CROSBY         SUNNY     32  19  59 W12       29.72F WCI  23
WATFORD CITY   SUNNY     37  16  42 SW15G21   29.71F WCI  28
BISMARCK       SUNNY     39  19  45 S20       29.83F WCI  29
GRAND FORKS    SUNNY     28  16  61 S24G35    30.02F WCI  14
FARGO          PTCLDY    34  14  44 SE28G35   30.06F WCI  21
BUFFALO SD     CLOUDY    43  18  37 W8        29.68F
RAPID CITY     CLOUDY    46  23  40 S12       29.73F
$$

REGIONAL REPORTS...WYOMING/IDAHO/WASHINGTON
CITY           SKY/WX    TMP DP  RH WIND       PRES   REMARKS
GILLETTE       PTCLDY    45   9  23 CALM      29.71F
SHERIDAN       PTCLDY    39  16  39 SW5       29.73F WCI  35
CODY           PTSUNNY   39  14  36 E8        29.69F WCI  33
YELLOWSTONE LA PTSUNNY   27  12  53 VRB3      29.67F
SALMON         PTCLDY    39   9  29 CALM      29.72F
MULLAN PASS    LGT SNOW  23  19  85 CALM      29.72S VSB 1
SAND POINT     PTSUNNY   37  25  62 SE7       29.89F WCI  32
SPOKANE        PTSUNNY   37  25  62 VRB7      29.88F WCI  32

$$



USA.gov is the U.S. government's official web portal to all federal, state and local government web resources and services.